Location: UBC Liquid-Mirror Observatory
(49.2876°N, 122.5728°W)
Time: 19:55:59
(UTC-08:00)

KITSAT 1 - Visible Passes

Search period start: 30 January 2015 00:00
Search period end: 09 February 2015 00:00
Orbit: 1312 x 1319 km, 66.1° (Epoch: 29 January)

Date Brightness Start Highest point End Pass type
(mag) Time Alt. Az. Time Alt. Az. Time Alt. Az.
30 Jan 11.5 18:50:18 10° W 18:57:18 30° NNW 19:03:57 11° NE visible
30 Jan 11.6 20:49:07 10° NW 20:55:29 24° N 20:55:55 24° N visible
30 Jan 12.2 22:45:40 10° NW 22:47:54 19° NNW 22:47:54 19° NNW visible
31 Jan 11.6 19:07:21 10° WNW 19:14:01 27° NNW 19:19:39 13° NE visible
31 Jan 11.6 21:05:43 10° NW 21:11:37 26° N 21:11:37 26° N visible
31 Jan 12.3 23:01:49 10° NW 23:03:36 18° NNW 23:03:36 18° NNW visible
01 Feb 11.7 19:24:22 10° WNW 19:30:48 25° N 19:35:20 16° NNE visible
01 Feb 11.6 21:22:09 10° NW 21:27:19 27° N 21:27:19 27° N visible
01 Feb 12.4 23:17:56 10° NW 23:19:18 16° NNW 23:19:18 16° NNW visible
02 Feb 11.3 17:42:16 10° W 17:49:38 36° NNW 17:56:58 10° NE visible
02 Feb 11.7 19:41:18 10° NW 19:47:38 24° N 19:51:02 19° NNE visible
02 Feb 11.6 21:38:27 10° NW 21:43:01 28° N 21:43:01 28° N visible
02 Feb 12.5 23:34:03 10° NW 23:34:59 14° NW 23:34:59 14° NW visible
03 Feb 11.5 17:59:15 10° W 18:06:16 31° NNW 18:13:15 10° NE visible
03 Feb 11.6 19:58:05 10° NW 20:04:27 24° N 20:06:45 22° NNE visible
03 Feb 11.7 21:54:40 10° NW 21:58:43 28° NNW 21:58:43 28° NNW visible
03 Feb 12.6 23:50:14 10° NW 23:50:42 12° NW 23:50:42 12° NW visible
04 Feb 11.6 18:16:17 10° WNW 18:23:00 27° NNW 18:29:39 10° NE visible
04 Feb 11.4 20:14:42 10° NW 20:21:15 26° NNE 20:22:27 25° NNE visible
04 Feb 11.7 22:10:50 10° NW 22:14:26 28° NNW 22:14:26 28° NNW visible
05 Feb 11.6 18:33:19 10° WNW 18:39:46 25° N 18:46:11 10° NE visible
05 Feb 11.3 20:31:09 10° NW 20:38:00 29° NNE 20:38:09 29° NNE visible
05 Feb 11.8 22:26:57 10° NW 22:30:08 26° NNW 22:30:08 26° NNW visible
06 Feb 11.6 18:50:16 10° NW 18:56:35 24° N 19:01:54 13° NE visible
06 Feb 11.2 20:47:28 10° NW 20:53:53 33° NNE 20:53:53 33° NNE visible
06 Feb 11.9 22:43:05 10° NW 22:45:52 24° NW 22:45:52 24° NW visible
07 Feb 11.6 19:07:03 10° NW 19:13:25 24° N 19:17:38 17° NE visible
07 Feb 11.1 21:03:41 10° NW 21:09:37 37° N 21:09:37 37° N visible
07 Feb 12.1 22:59:14 10° NW 23:01:36 22° NW 23:01:36 22° NW visible
08 Feb 11.4 19:23:41 10° NW 19:30:13 26° NNE 19:33:23 21° NE visible
08 Feb 11.1 21:19:51 10° NW 21:25:22 40° N 21:25:22 40° N visible
08 Feb 12.2 23:15:28 10° NW 23:17:21 19° NW 23:17:21 19° NW visible
